[[{"header":{"parameterUnit":"m.s-1","parameterCategory":1,"la1":30.2991,"la2":30.254,"lo1":-89.0895,"lo2":-89.0444,"dy":0.0017,"dx":0.0017,"nx":28,"ny":28,"refTime":"2023-10-18T21:00:00:Z","depth":0,"parameterNumber":2,"parameterNumberName":"U-component_of_WINDS"},"data":[0,0,0,0,0,0,0,0,0,0,0,0,0,0,0,0,0,0,0,0,0,0,0,0,0,0,0,0,0,0,0,0,0,0,0,0,0,0,0,0,0,0,0,0,0,0,0,0,0,0,0,0,0,0,0,0,0,0,-0.9636,-0.9636,0,-0.9604,-0.9604,-0.9604,-0.9548,-0.9547,-0.9546,-0.9545,-0.9512,-0.9513,-0.9513,0,0,0,0,0,0,0,0,0,0,0,0,0,-0.9651,-0.9652,-0.9636,-0.9636,-0.9636,-0.9604,-0.9604,-0.9604,-0.9548,-0.9547,-0.9545,-0.9544,-0.9512,-0.9513,-0.9513,0,0,0,0,0,0,0,0,0,0,0,0,0,-0.9635,-0.9652,-0.9637,-0.9604,-0.9601,-0.9605,-0.9604,-0.9603,-0.9548,-0.9547,-0.9545,-0.9544,-0.9512,-0.9513,-0.9513,-0.9545,0,0,-0.9513,-0.9513,0,0,0,0,0,0,0,0,-0.9636,-0.9634,-0.9609,-0.9606,-0.9603,-0.9578,-0.9597,-0.9584,-0.9549,-0.9568,-0.9545,-0.9543,-0.9536,-0.9534,-0.9531,-0.9544,-0.9543,-0.9513,-0.9513,-0.9513,-0.9514,0,0,0,0,0,0,0,-0.9637,-0.9635,-0.9624,-0.9609,-0.9605,-0.9592,-0.9588,-0.9595,-0.9561,-0.9566,-0.9562,-0.9559,-0.9534,-0.9531,-0.953,-0.9542,-0.9513,-0.9513,-0.9514,-0.9514,-0.9582,-0.9584,0,0,0,0,0,0,-0.9643,-0.9637,-0.9625,-0.9623,-0.9616,-0.9593,-0.9588,-0.9588,-0.9561,-0.9555,-0.9561,-0.9557,-0.9532,-0.953,-0.9529,-0.9567,-0.9513,-0.9514,-0.9514,-0.9581,-0.9583,-0.9584,0,0,0,0,0,0,-0.9643,-0.9642,-0.9626,-0.9629,-0.9626,-0.9594,-0.9594,-0.9588,-0.9586,-0.9557,-0.9551,-0.9564,-0.953,-0.9529,-0.9542,-0.9565,-0.9514,-0.9514,-0.9579,-0.9581,-0.9584,-0.9642,0,0,0,0,0,0,-0.9644,-0.9643,-0.9654,-0.9629,-0.9626,-0.9639,-0.9596,-0.9589,-0.9586,-0.9581,-0.9558,-0.9553,-0.9529,-0.9542,-0.9542,-0.9564,-0.9514,-0.9576,-0.958,-0.9583,-0.9638,-0.9646,-0.9653,0,0,0,0,0,-0.9645,-0.9672,-0.9655,-0.9654,-0.9639,-0.9641,-0.9639,-0.961,-0.9588,-0.96,-0.9582,-0.9554,-0.9562,-0.9544,-0.9544,-0.9566,-0.9575,-0.9579,-0.9582,-0.9634,-0.9644,-0.9653,0,0,0,0,0,0,-0.9699,-0.9668,-0.9649,-0.9668,-0.9658,-0.9631,-0.9645,-0.9622,-0.9617,-0.9612,-0.9577,-0.9573,-0.9591,-0.958,-0.956,-0.9597,-0.9564,-0.9568,-0.9604,-0.9613,-0.9621,-0.9623,-0.9514,0,0,0,0,0,-0.9714,-0.9717,-0.969,-0.971,-0.9705,-0.9677,-0.9676,-0.9655,-0.9643,-0.9638,-0.962,-0.961,-0.961,-0.9611,-0.961,-0.9636,-0.9631,-0.9651,-0.9659,-0.9666,-0.9669,-0.9684,-0.9693,-0.9597,-0.9597,-0.9597,0,0,-0.9744,-0.9727,-0.9731,-0.972,-0.9709,-0.9715,-0.9673,-0.968,-0.9683,-0.9639,-0.9651,-0.9638,-0.9624,-0.9645,-0.9653,-0.9636,-0.9695,-0.9671,-0.9676,-0.9676,-0.9689,-0.9699,-0.9707,-0.96,-0.9599,-0.9599,0,0,-0.98,-0.9788,-0.9803,-0.9794,-0.9779,-0.976,-0.9764,-0.9741,-0.9731,-0.9743,-0.971,-0.9715,-0.9716,-0.9707,-0.9703,-0.976,-0.9735,-0.9761,-0.9801,-0.9816,-0.9824,-0.983,-0.9852,-0.986,-0.9765,-0.9765,-0.9765,0,-0.9839,-0.9845,-0.9815,-0.9824,-0.9821,-0.9782,-0.9798,-0.9791,-0.9776,-0.9775,-0.9756,-0.9758,-0.9746,-0.9765,-0.9779,-0.9777,-0.9781,-0.9763,-0.9825,-0.9831,-0.9837,-0.9857,-0.9865,-0.9768,-0.9768,-0.9767,-0.9767,0,-0.9894,-0.9899,-0.9914,-0.9901,-0.99,-0.9913,-0.9885,-0.9888,-0.9868,-0.9852,-0.9865,-0.9849,-0.9845,-0.9848,-0.9828,-0.9865,-0.9855,-0.9831,-0.9797,-0.985,-0.9868,-0.9876,-0.9773,-0.9772,-0.9771,-0.977,0,0,-0.9983,-0.9955,-0.9961,-0.9955,-0.9937,-0.994,-0.9952,-0.9948,-0.9952,-0.9944,-0.9954,-0.9957,-0.9935,-0.9931,-0.991,-0.9923,-0.9971,-0.9898,-0.9897,-0.9913,-1.0012,-1.0031,-1.004,-0.9954,-0.9956,-0.9957,-1.0014,0,-1.0036,-1.0055,-1.0029,-1.0053,-1.0059,-1.0023,-1.0033,-1.0024,-1.0009,-1.0012,-0.9996,-0.9999,-0.997,-0.9967,-0.9979,-0.9963,-0.999,-0.9958,-0.9964,-0.9965,-0.9969,-1.0049,-1.0068,-1.0123,-1.0021,-1.0022,-1.0023,0,-1.01,-1.0096,-1.0121,-1.0103,-1.0104,-1.0114,-1.0109,-1.0112,-1.0101,-1.009,-1.0087,-1.0062,-1.0074,-1.0042,-1.0059,-1.0038,-1.0039,-1.0032,-1.0033,-1.0033,-0.9997,-1.0052,-1.0139,-1.0148,-1.0033,-1.0033,-1.0032,0,-1.0163,-1.0164,-1.018,-1.0176,-1.0155,-1.0163,-1.0155,-1.0142,-1.0142,-1.0138,-1.0138,-1.0136,-1.0135,-1.0134,-1.0111,-1.0089,-1.0131,-1.0097,-1.0123,-1.0124,-1.0133,-1.0133,-1.0223,-1.0134,-1.0134,-1.0134,-1.0133,0,-1.0225,-1.0243,-1.0208,-1.0218,-1.0237,-1.0208,-1.0227,-1.0215,-1.0205,-1.0213,-1.0182,-1.019,-1.0158,-1.0163,-1.0145,-1.0162,-1.0162,-1.0154,-1.0149,-1.0157,-1.0158,-1.0157,-1.0153,-1.0136,-1.0135,-1.0135,-1.0134,0,-1.0299,-1.0276,-1.0291,-1.0271,-1.0266,-1.0281,-1.0264,-1.0272,-1.0257,-1.0267,-1.0268,-1.0243,-1.0248,-1.0225,-1.0225,-1.0213,-1.024,-1.0228,-1.0244,-1.024,-1.0268,-1.0266,-1.0361,-1.0373,-1.0276,-1.0277,-1.0278,0,-1.034,-1.0353,-1.0334,-1.0337,-1.033,-1.0335,-1.0335,-1.0308,-1.031,-1.03,-1.031,-1.0312,-1.0312,-1.0322,-1.0305,-1.0305,-1.0294,-1.0327,-1.0294,-1.0302,-1.0295,-1.0295,-1.0297,-1.0334,-1.0335,-1.0336,-1.0337,0,-1.0416,-1.0405,-1.0406,-1.0404,-1.0405,-1.0403,-1.0398,-1.0402,-1.0373,-1.0377,-1.0381,-1.0381,-1.0382,-1.0386,-1.0383,-1.0375,-1.0352,-1.0348,-1.0354,-1.0362,-1.0371,-1.0368,-1.0263,-1.0346,-1.0345,-1.0344,-1.0344,-1.0343,-1.0475,-1.0485,-1.0474,-1.0477,-1.0471,-1.0468,-1.0475,-1.0461,-1.0465,-1.0463,-1.0447,-1.0455,-1.0446,-1.0441,-1.0436,-1.0443,-1.0427,-1.0436,-1.0438,-1.0441,-1.0446,-1.037,-1.0442,-1.0442,-1.0441,-1.0441,-1.0441,0,-1.0549,-1.0541,-1.0544,-1.0539,-1.0542,-1.052,-1.0514,-1.0519,-1.0526,-1.052,-1.0521,-1.0527,-1.0531,-1.0515,-1.0516,-1.0525,-1.0515,-1.0527,-1.0526,-1.0525,-1.046,-1.0454,-1.0535,-1.0535,-1.0535,-1.0535,-1.0535,-1.0535,-1.0589,-1.0605,-1.0593,-1.0608,-1.0599,-1.0607,-1.0606,-1.0603,-1.0598,-1.0607,-1.0609,-1.0599,-1.0589,-1.059,-1.0593,-1.0589,-1.0591,-1.0607,-1.0599,-1.0538,-1.0529,-1.052,-1.0515,-1.0608,-1.0608,-1.0663,-1.0664,-1.0664]},{"header":{"parameterUnit":"m.s-1","parameterCategory":1,"la1":30.2991,"la2":30.254,"lo1":-89.0895,"lo2":-89.0444,"dy":0.0017,"dx":0.0017,"nx":28,"ny":28,"refTime":"2023-10-18T21:00:00:Z","depth":0,"parameterNumber":3,"parameterNumberName":"V-component_of_WINDS"},"data":[0,0,0,0,0,0,0,0,0,0,0,0,0,0,0,0,0,0,0,0,0,0,0,0,0,0,0,0,0,0,0,0,0,0,0,0,0,0,0,0,0,0,0,0,0,0,0,0,0,0,0,0,0,0,0,0,0,0,2.2582,2.2581,0,2.2502,2.2501,2.25,2.2508,2.2509,2.2511,2.2512,2.2419,2.2416,2.2412,0,0,0,0,0,0,0,0,0,0,0,0,0,2.2732,2.273,2.2582,2.2581,2.258,2.2502,2.2501,2.25,2.2508,2.2509,2.2511,2.2512,2.242,2.2416,2.2412,0,0,0,0,0,0,0,0,0,0,0,0,0,2.2661,2.2729,2.2582,2.2575,2.2574,2.2503,2.2501,2.25,2.2507,2.2509,2.2511,2.2513,2.2422,2.2416,2.2411,2.2339,0,0,2.2394,2.2392,0,0,0,0,0,0,0,0,2.2665,2.2655,2.2577,2.2575,2.2574,2.2517,2.252,2.2445,2.2507,2.2532,2.2512,2.2514,2.2449,2.2442,2.2422,2.2335,2.2331,2.2394,2.239,2.2388,2.2387,0,0,0,0,0,0,0,2.267,2.2659,2.255,2.2576,2.2574,2.2572,2.2564,2.2506,2.2481,2.253,2.2531,2.2522,2.2449,2.2428,2.242,2.2329,2.2394,2.2389,2.2386,2.2384,2.2176,2.2174,0,0,0,0,0,0,2.2678,2.2663,2.2553,2.2548,2.2625,2.2568,2.2559,2.2533,2.2482,2.2476,2.252,2.2522,2.2436,2.2427,2.2417,2.2327,2.2388,2.2383,2.238,2.2178,2.2175,2.2173,0,0,0,0,0,0,2.2681,2.2668,2.2556,2.2606,2.2591,2.2564,2.2534,2.2531,2.251,2.2474,2.2468,2.2504,2.2437,2.2425,2.2359,2.2324,2.2381,2.2376,2.2181,2.2177,2.2174,2.2149,0,0,0,0,0,0,2.2686,2.2669,2.2644,2.2605,2.2589,2.2502,2.2532,2.2528,2.2501,2.2503,2.2457,2.2451,2.2438,2.2367,2.2353,2.2318,2.2371,2.2184,2.2179,2.2175,2.2153,2.2145,2.2139,0,0,0,0,0,2.2691,2.2638,2.2643,2.2629,2.2557,2.25,2.249,2.2479,2.2499,2.2471,2.2448,2.2453,2.2331,2.236,2.2345,2.2307,2.2186,2.218,2.2176,2.2156,2.2147,2.2139,0,0,0,0,0,0,2.267,2.2633,2.2637,2.2571,2.2539,2.2502,2.2467,2.247,2.2429,2.2432,2.2417,2.2406,2.2339,2.2317,2.2349,2.2234,2.226,2.2252,2.2251,2.2242,2.2235,2.224,2.2367,0,0,0,0,0,2.2658,2.2619,2.2587,2.2531,2.2516,2.2494,2.2469,2.2463,2.2428,2.2413,2.2386,2.2348,2.2301,2.2271,2.2226,2.215,2.2138,2.2117,2.211,2.2105,2.2096,2.2053,2.2042,2.2157,2.2157,2.2157,0,0,2.2632,2.2607,2.2582,2.2527,2.2501,2.2457,2.2482,2.2435,2.2401,2.2405,2.2341,2.232,2.2276,2.2205,2.2172,2.2184,2.2063,2.2098,2.2094,2.2089,2.2046,2.2036,2.2026,2.2153,2.2154,2.2154,0,0,2.2562,2.2541,2.2492,2.2466,2.2429,2.2415,2.2403,2.2365,2.2352,2.2289,2.2291,2.2248,2.2169,2.2138,2.2112,2.2031,2.2032,2.2016,2.1979,2.1936,2.1927,2.1919,2.1887,2.1877,2.2009,2.2009,2.2009,0,2.2534,2.2471,2.2465,2.2417,2.2391,2.2397,2.2345,2.232,2.2268,2.2248,2.2264,2.2164,2.2135,2.2056,2.2036,2.2016,2.1999,2.202,2.193,2.1921,2.1914,2.1883,2.1872,2.2007,2.2007,2.2007,2.2008,0,2.2437,2.2393,2.2357,2.2311,2.2281,2.2231,2.2214,2.2184,2.2181,2.2165,2.2099,2.2065,2.2013,2.1994,2.199,2.1913,2.1922,2.1934,2.196,2.1901,2.1872,2.1861,2.2004,2.2005,2.2006,2.2006,0,0,2.2349,2.2302,2.2288,2.2267,2.2226,2.219,2.2139,2.2092,2.2065,2.2029,2.1984,2.1917,2.1928,2.1898,2.189,2.1854,2.1789,2.1869,2.1868,2.1853,2.1699,2.1689,2.1676,2.1791,2.1788,2.1787,2.1702,0,2.2274,2.2188,2.2181,2.2102,2.206,2.2065,2.2021,2.1989,2.1972,2.1931,2.1911,2.1863,2.1883,2.1865,2.1829,2.1804,2.1757,2.1811,2.1744,2.1742,2.1753,2.1661,2.165,2.1572,2.1691,2.1689,2.1688,0,2.2174,2.2138,2.2056,2.2021,2.2003,2.1964,2.1919,2.1881,2.1844,2.1834,2.1802,2.1799,2.1743,2.1774,2.1695,2.1731,2.1704,2.1688,2.1684,2.1675,2.171,2.1647,2.1547,2.1534,2.167,2.1672,2.1673,0,2.2115,2.2047,2.1989,2.1971,2.1929,2.19,2.1881,2.1846,2.1818,2.1778,2.1759,2.1711,2.1685,2.1647,2.1629,2.1654,2.155,2.158,2.1537,2.1537,2.1513,2.1514,2.1405,2.15,2.15,2.15,2.15,0,2.203,2.1979,2.1962,2.1926,2.1868,2.186,2.1801,2.1783,2.1752,2.171,2.1711,2.167,2.1652,2.1607,2.1593,2.1528,2.1516,2.1504,2.15,2.1503,2.1504,2.1482,2.1486,2.1497,2.1498,2.1498,2.1499,0,2.1954,2.1942,2.1878,2.1845,2.1835,2.1793,2.1763,2.1726,2.1711,2.1657,2.1644,2.1618,2.1566,2.1546,2.1481,2.1472,2.1396,2.1398,2.141,2.1408,2.1366,2.1369,2.1236,2.1217,2.1327,2.1326,2.1325,0,2.19,2.1861,2.1824,2.1798,2.1778,2.1735,2.1707,2.1697,2.1667,2.1622,2.159,2.1539,2.1497,2.1413,2.1386,2.1336,2.1335,2.1292,2.1327,2.133,2.1331,2.1333,2.1327,2.1284,2.1283,2.1282,2.1282,0,2.1803,2.1799,2.1761,2.1719,2.1687,2.1653,2.162,2.1597,2.1581,2.1547,2.1495,2.1463,2.1399,2.1347,2.1296,2.1271,2.1272,2.1271,2.1258,2.1259,2.1266,2.1259,2.1389,2.1274,2.1274,2.1275,2.1275,2.1276,2.1734,2.17,2.1669,2.1625,2.16,2.1569,2.1533,2.1515,2.1473,2.1422,2.1418,2.1361,2.1323,2.1255,2.1229,2.1182,2.1193,2.1175,2.117,2.1165,2.1161,2.1276,2.1173,2.1173,2.1174,2.1174,2.1174,0,2.1636,2.1617,2.1577,2.1533,2.1498,2.1507,2.147,2.1439,2.1391,2.1357,2.1318,2.1257,2.1207,2.1177,2.1125,2.1093,2.1092,2.108,2.1081,2.1075,2.1155,2.1171,2.1082,2.1082,2.1082,2.1082,2.1082,2.1082,2.1581,2.1522,2.1515,2.1442,2.1423,2.1371,2.1349,2.1319,2.1292,2.1226,2.1186,2.1168,2.1135,2.1081,2.1034,2.1026,2.1006,2.0992,2.0984,2.106,2.1069,2.1078,2.1092,2.0988,2.0988,2.0907,2.0907,2.0906]}]]